| time (UTC) | temp F | wind direction | speed knots | gust knots | rain 1hr in | rain 24hr in | rain mn in | humidity % | barometer mb |
| 20260507211549 | 84 | 349 | 1.7 | 5.2 | 0.00 | 0.00 | 0.00 | 50 | 1000.7 |
| 20260507210006 | 85 | 349 | 1.7 | 7.0 | 0.00 | 0.00 | 0.00 | 49 | 1000.8 |
| 20260507204533 | 85 | 334 | 1.7 | 7.8 | 0.00 | 0.00 | 0.00 | 48 | 1000.8 |
| 20260507203054 | 85 | 345 | 1.7 | 5.2 | 0.00 | 0.00 | 0.00 | 48 | 1000.7 |
| 20260507201529 | 85 | 22 | 0.9 | 5.2 | 0.00 | 0.00 | 0.00 | 49 | 1000.4 |
| 20260507200049 | 85 | 350 | 0.9 | 4.3 | 0.00 | 0.00 | 0.00 | 49 | 1000.6 |
| 20260507194621 | 86 | 341 | 1.7 | 5.2 | 0.00 | 0.00 | 0.00 | 47 | 1000.6 |
| 20260507193029 | 86 | 340 | 2.6 | 7.8 | 0.00 | 0.00 | 0.00 | 47 | 1000.9 |
| 20260507191600 | 86 | 355 | 2.6 | 10.4 | 0.00 | 0.00 | 0.00 | 47 | 1001.0 |
| 20260507190010 | 86 | 348 | 1.7 | 7.0 | 0.00 | 0.00 | 0.00 | 47 | 1000.7 |
| 20260507184533 | 86 | 327 | 1.7 | 9.6 | 0.00 | 0.00 | 0.00 | 47 | 1000.8 |
| 20260507183047 | 87 | 319 | 2.6 | 8.7 | 0.00 | 0.00 | 0.00 | 47 | 1000.8 |
| 20260507181501 | 87 | 311 | 1.7 | 8.7 | 0.00 | 0.00 | 0.00 | 46 | 1000.6 |
| 20260507180036 | 88 | 313 | 3.5 | 7.0 | 0.00 | 0.00 | 0.00 | 48 | 1000.5 |
| 20260507174516 | 88 | 288 | 2.6 | 11.3 | 0.00 | 0.00 | 0.00 | 46 | 1000.6 |
| 20260507173035 | 88 | 305 | 7.8 | 16.5 | 0.00 | 0.00 | 0.00 | 45 | 1000.6 |
| 20260507171604 | 89 | 32 | 3.5 | 14.8 | 0.00 | 0.00 | 0.00 | 44 | 1000.6 |
| 20260507170009 | 88 | 360 | 7.0 | 17.4 | 0.00 | 0.00 | 0.00 | 44 | 1000.8 |
| 20260507164548 | 88 | 322 | 8.7 | 20.0 | 0.00 | 0.00 | 0.00 | 45 | 1001.1 |
| 20260507163059 | 88 | 344 | 6.1 | 13.0 | 0.00 | 0.00 | 0.00 | 45 | 1001.4 |
| 20260507161531 | 89 | 290 | 6.1 | 19.1 | 0.00 | 0.00 | 0.00 | 46 | 1001.9 |
| 20260507160033 | 89 | 349 | 9.6 | 19.1 | 0.00 | 0.00 | 0.00 | 46 | 1002.1 |
| 20260507154550 | 88 | 351 | 5.2 | 14.8 | 0.00 | 0.00 | 0.00 | 48 | 1002.3 |
| 20260507153002 | 88 | 302 | 7.0 | 14.8 | 0.00 | 0.00 | 0.00 | 48 | 1002.8 |
| 20260507151534 | 87 | 308 | 6.1 | 15.6 | 0.00 | 0.00 | 0.00 | 51 | 1003.1 |
| 20260507150059 | 87 | 23 | 6.1 | 14.8 | 0.00 | 0.00 | 0.00 | 50 | 1003.7 |
| 20260507144517 | 87 | 360 | 7.8 | 15.6 | 0.00 | 0.00 | 0.00 | 49 | 1003.9 |
| 20260507143025 | 87 | 320 | 7.8 | 14.8 | 0.00 | 0.00 | 0.00 | 50 | 1004.2 |
| 20260507141607 | 87 | 321 | 6.1 | 14.8 | 0.00 | 0.00 | 0.00 | 51 | 1004.8 |
| 20260507140055 | 85 | 0.0 | 0.0 | 0.00 | 0.00 | 0.00 | 54 | 1005.3 | |
| 20260507134517 | 85 | 1.7 | 7.8 | 0.00 | 0.00 | 0.00 | 58 | 1005.7 | |
| 20260507133036 | 82 | 0.0 | 0.0 | 0.00 | 0.00 | 0.00 | 62 | 1006.3 | |
| 20260507131559 | 82 | 0.0 | 0.0 | 0.00 | 0.00 | 0.00 | 63 | 1006.6 | |
| 20260507130030 | 82 | 0.0 | 0.0 | 0.00 | 0.00 | 0.00 | 63 | 1006.8 | |
| 20260507124551 | 81 | 0.0 | 0.0 | 0.00 | 0.00 | 0.00 | 66 | 1006.9 | |
| 20260507123007 | 80 | 0.0 | 0.0 | 0.00 | 0.00 | 0.00 | 68 | 1007.0 | |
| 20260507121541 | 78 | 0.0 | 0.0 | 0.00 | 0.00 | 0.00 | 77 | 1006.8 | |
| 20260507120044 | 76 | 0.0 | 0.0 | 0.00 | 0.00 | 0.00 | 81 | 1007.0 | |
| 20260507114544 | 76 | 144 | 0.0 | 0.9 | 0.00 | 0.00 | 0.00 | 77 | 1007.2 |
| 20260507113048 | 75 | 144 | 0.0 | 1.7 | 0.00 | 0.00 | 0.00 | 79 | 1006.9 |
| 20260507111503 | 74 | 144 | 0.0 | 1.7 | 0.00 | 0.00 | 0.00 | 80 | 1006.9 |
| 20260507110037 | 72 | 144 | 0.0 | 1.7 | 0.00 | 0.00 | 0.00 | 83 | 1006.7 |
| 20260507104559 | 71 | 144 | 0.0 | 1.7 | 0.00 | 0.00 | 0.00 | 83 | 1006.7 |
| 20260507103009 | 71 | 144 | 0.9 | 1.7 | 0.00 | 0.00 | 0.00 | 83 | 1006.9 |
| 20260507101548 | 70 | 103 | 0.9 | 1.7 | 0.00 | 0.00 | 0.00 | 83 | 1006.7 |
| 20260507100109 | 71 | 103 | 0.0 | 1.7 | 0.00 | 0.00 | 0.00 | 82 | 1006.8 |
| 20260507094526 | 71 | 102 | 0.9 | 1.7 | 0.00 | 0.00 | 0.00 | 81 | 1006.9 |
| 20260507093050 | 70 | 91 | 0.0 | 0.9 | 0.00 | 0.00 | 0.00 | 82 | 1006.7 |
| 20260507091527 | 71 | 91 | 0.9 | 0.9 | 0.00 | 0.00 | 0.00 | 81 | 1006.7 |
| 20260507090055 | 71 | 91 | 0.0 | 1.7 | 0.00 | 0.00 | 0.00 | 82 | 1006.7 |
| 20260507084512 | 70 | 90 | 0.0 | 1.7 | 0.00 | 0.00 | 0.00 | 82 | 1006.7 |
| 20260507083022 | 70 | 90 | 0.0 | 1.7 | 0.00 | 0.00 | 0.00 | 83 | 1006.7 |
| 20260507081544 | 71 | 90 | 0.0 | 1.7 | 0.00 | 0.00 | 0.00 | 83 | 1006.9 |
| 20260507080054 | 71 | 90 | 0.0 | 1.7 | 0.00 | 0.00 | 0.00 | 83 | 1007.0 |
| 20260507074526 | 71 | 90 | 0.0 | 1.7 | 0.00 | 0.00 | 0.00 | 82 | 1007.2 |
| 20260507073046 | 71 | 90 | 0.0 | 1.7 | 0.00 | 0.00 | 0.00 | 81 | 1007.3 |
| 20260507071550 | 71 | 90 | 0.0 | 0.9 | 0.00 | 0.00 | 0.00 | 81 | 1007.5 |
| 20260507070013 | 72 | 90 | 0.0 | 0.0 | 0.00 | 0.00 | 0.00 | 80 | 1007.5 |
| 20260507064604 | 72 | 90 | 0.9 | 1.7 | 0.00 | 0.00 | 0.00 | 80 | 1007.6 |
| 20260507063013 | 73 | 90 | 0.0 | 1.7 | 0.00 | 0.00 | 0.00 | 79 | 1007.9 |
| 20260507061538 | 73 | 92 | 0.0 | 2.6 | 0.00 | 0.00 | 0.00 | 80 | 1008.2 |
| 20260507060051 | 72 | 82 | 0.0 | 1.7 | 0.00 | 0.00 | 0.00 | 81 | 1008.4 |
| 20260507054529 | 72 | 82 | 0.0 | 1.7 | 0.00 | 0.00 | 0.00 | 82 | 1008.4 |
| 20260507053044 | 72 | 82 | 0.0 | 1.7 | 0.00 | 0.00 | 0.00 | 81 | 1008.8 |
| 20260507051503 | 72 | 81 | 0.0 | 1.7 | 0.00 | 0.00 | 0.00 | 82 | 1008.9 |
| 20260507050008 | 72 | 73 | 0.0 | 1.7 | 0.00 | 0.00 | 0.00 | 82 | 1009.2 |
| 20260507044542 | 72 | 73 | 0.0 | 1.7 | 0.00 | 0.00 | 0.00 | 82 | 1009.3 |
| 20260507043058 | 72 | 73 | 0.0 | 1.7 | 0.00 | 0.00 | 0.00 | 82 | 1009.6 |
| 20260507041614 | 72 | 73 | 0.0 | 1.7 | 0.00 | 0.00 | 0.00 | 83 | 1009.8 |
| 20260507040013 | 73 | 73 | 0.0 | 1.7 | 0.00 | 0.00 | 0.00 | 81 | 1010.0 |
| 20260507034554 | 74 | 73 | 0.0 | 1.7 | 0.00 | 0.00 | 0.00 | 79 | 1010.2 |
| 20260507033107 | 74 | 73 | 0.0 | 2.6 | 0.00 | 0.00 | 0.00 | 78 | 1010.3 |
| 20260507031534 | 74 | 74 | 1.7 | 4.3 | 0.00 | 0.00 | 0.00 | 78 | 1010.4 |
| 20260507030052 | 74 | 59 | 0.9 | 2.6 | 0.00 | 0.00 | 0.00 | 80 | 1010.6 |
| 20260507024525 | 74 | 80 | 0.9 | 1.7 | 0.00 | 0.00 | 0.00 | 80 | 1010.8 |
| 20260507023036 | 74 | 80 | 0.0 | 1.7 | 0.00 | 0.00 | 0.00 | 80 | 1010.9 |
| 20260507021552 | 74 | 80 | 0.0 | 1.7 | 0.00 | 0.00 | 0.00 | 79 | 1011.0 |
| 20260507020025 | 74 | 111 | 0.0 | 1.7 | 0.00 | 0.00 | 0.00 | 81 | 1011.1 |
| 20260507014546 | 74 | 111 | 0.0 | 1.7 | 0.00 | 0.00 | 0.00 | 82 | 1011.2 |
| 20260507013011 | 74 | 111 | 0.0 | 0.9 | 0.00 | 0.00 | 0.00 | 81 | 1011.3 |
| 20260507011548 | 75 | 111 | 0.0 | 0.9 | 0.00 | 0.00 | 0.00 | 80 | 1011.5 |
| 20260507010056 | 75 | 113 | 0.0 | 1.7 | 0.00 | 0.00 | 0.00 | 81 | 1011.4 |
| 20260507004533 | 75 | 113 | 0.0 | 1.7 | 0.00 | 0.00 | 0.00 | 80 | 1011.4 |
| 20260507003101 | 75 | 113 | 0.9 | 1.7 | 0.00 | 0.00 | 0.00 | 81 | 1011.5 |
| 20260507001530 | 75 | 114 | 0.0 | 1.7 | 0.00 | 0.00 | 0.00 | 81 | 1011.6 |
| 20260507000035 | 76 | 114 | 0.0 | 1.7 | 0.00 | 0.00 | 0.00 | 79 | 1011.7 |
| 20260506234502 | 77 | 114 | 0.0 | 1.7 | 0.00 | 0.00 | 0.00 | 76 | 1011.7 |
| 20260506233015 | 78 | 111 | 0.0 | 1.7 | 0.00 | 0.00 | 0.00 | 76 | 1011.5 |
| 20260506231554 | 78 | 110 | 0.0 | 1.7 | 0.00 | 0.00 | 0.00 | 76 | 1011.5 |
| 20260506230030 | 78 | 105 | 0.0 | 2.6 | 0.00 | 0.00 | 0.00 | 76 | 1011.4 |
| 20260506224547 | 78 | 165 | 0.0 | 0.9 | 0.00 | 0.00 | 0.00 | 75 | 1011.3 |
| 20260506223015 | 78 | 167 | 0.9 | 0.9 | 0.00 | 0.00 | 0.00 | 76 | 1011.3 |
| 20260506221531 | 79 | 167 | 0.0 | 1.7 | 0.00 | 0.00 | 0.00 | 75 | 1011.4 |
| 20260506220101 | 79 | 192 | 0.9 | 1.7 | 0.00 | 0.00 | 0.00 | 74 | 1011.4 |
| 20260506214527 | 79 | 198 | 0.9 | 0.9 | 0.00 | 0.00 | 0.00 | 75 | 1011.3 |
| 20260506213036 | 80 | 198 | 0.0 | 1.7 | 0.00 | 0.00 | 0.00 | 74 | 1011.3 |